Find Starlink 30105

NORAD ID: 57433 Int'l Des: 2023-105 Owner: SPXS Country: US Constellation: starlink operational
LEOCIRCULAR

Current View

Loading 3D Globe...

About Starlink 30105

Starlink 30105 (NORAD 57433) is a starlink constellation satellite (v2 mini) launched Jul 24, 2023 by SPXS of US. It operates in LEO, CIRCULAR orbit with a mass of 730.00 kg.

About Starlink 30105

Description loading...

Upcoming Passes

Passes for default location (London). Set your location on the main map for personalized predictions.

Altitude History

Loading altitude history...

Two-Line Element Set

1 57433U 23105D 26170.28809380 .00003101 00000-0 12211-3 0 9992
2 57433 43.0019 177.0598 0001311 267.0304 93.0398 15.27590777163862
Epoch: Jun 19, 2026 • Age: 21 hours

Current Status

Altitude 483.3 km
Velocity 7.63 km/s
Sub-Earth Point -3.66°S, 25.76°E
Launch Date Jul 24, 2023
Age 2.9 years
Type internet

Technical Details

Classification Payload
Mass 730.00 kg
Dry Mass 700.00 kg
Total Mass 730.00 kg
Length 0.30 m
Diameter 4.10 m
Span 29.00 m
Shape Box + pan
Manufacturer SPXS
Bus Type Starlink V2M
Phase Status In Orbit
Owner/State SPXS/US

Most Searched